Location: Clanezzo
(45.7500°N, 9.6000°E)
Time: 13:41:21
(UTC+00:00)

STARS - Pass Details

Date: 09 July 2022
Orbit: 620 x 637 km, 98.2° (Epoch: 18 August)

Event Time Altitude Azimuth Distance (km) Brightness Sun altitude
Rises 22:03:29 0° 14° (NNE) 2,925 ? -19.4°
Reaches altitude 10° 22:05:42 10° 16° (NNE) 2,010 ? -19.5°
Maximum altitude 22:10:05 77° 103° (ESE) 647 ? -19.8°
Enters shadow 22:11:14 48° 177° (S) 817 ? -19.8°
